www.pogodaiklimat.ru

Погода и климат >> Архив погоды >> Россия >> Ямало-Ненецкий АО >> Тамбей


ПОГОДА в Тамбее

  • Прогноз погоды в Тамбее
  • Монитор погоды в Тамбее

АРХИВ ПОГОДЫ в Тамбее

Время (UTC), дата Ветер
(напр.,м/с)
 
Видим.   Явления Облачность Т
(С)
Тd
(С)
f
(%)
Тe
(С)
Тes
(С)
Комфортность P
(гПа)
Po
(гПа)
Тmin
(С)
Tmax
(С)
R
(мм)
R24
(мм)
S
(см)
21 16.07 СВ 5 н/о н/о +1.8 +2.3 104 -4 1022.3 1021.3
00 17.07 СВ 5 н/о н/о +1.9 +2.4 104 -4 -4 1022.3 1021.3
03 17.07 СВ 5 н/о н/о +3.0 +3.6 104 -3 -3 1022.3 1021.3
06 17.07 СВ 4 н/о н/о +4.0 +4.6 104 -1 -1 1022.3 1021.3
09 17.07 В 4 н/о н/о +6.6 +7.0 +3 +3 1020.1 1019.1
12 17.07 СВ 4 н/о н/о +6.7 +6.0 95 +3 +3 1021.0 1020.0
15 17.07 В 4 н/о н/о +6.3 +5.7 96 +2 +2 1019.7 1018.7
18 17.07 В 6 н/о н/о +5.0 +4.7 98 -0 1019.7 1018.7
21 17.07 В 3 н/о н/о +4.5 +4.6 101 +1 +1 1019.7 1018.7
00 18.07 СВ 3 н/о н/о +5.0 +4.9 99 +1 +1 1019.7 1018.7
03 18.07 СВ 4 н/о н/о +5.3 +4.7 96 +1 +1 1019.7 1018.7
06 18.07 СВ 4 н/о н/о +5.8 +5.1 95 +2 +2 1018.3 1017.3
09 18.07 СВ 4 н/о н/о +9.7 +7.8 +7 +7 1016.0 1015.1
12 18.07 СВ 4 н/о н/о +9.1 +7.4 89 +6 +6 1017.0 1016.0
15 18.07 С 3 н/о н/о +8.8 +8.0 95 +6 +6 1015.7 1014.7
18 18.07 С 4 н/о н/о +9.7 +9.7 100 +7 +7 1015.7 1014.7
21 18.07 С 3 н/о н/о +9.6 +10.0 103 +7 +7 1015.7 1014.7
00 19.07 С 4 н/о н/о +9.8 +9.9 101 +7 +7 1015.7 1014.7
03 19.07 СВ 4 н/о н/о +6.5 +6.8 102 +2 +3 1015.7 1014.7
06 19.07 СВ 4 н/о н/о +8.7 +9.3 104 +5 +5 1015.7 1014.7
09 19.07 СВ 4 н/о н/о +11.5 +10.7 95 +9 +9 1014.3 1013.3
12 19.07 С 5 н/о н/о +8.7 +7.6 93 +5 +5 1014.3 1013.3
15 19.07 С 6 н/о н/о +8.5 +8.1 97 +4 +4 1014.3 1013.3
18 19.07 СВ 3 н/о н/о +6.6 +6.9 102 +3 +3 1013.0 1012.0
21 19.07 СВ 4 н/о н/о +5.8 +6.2 103 +2 +2 1013.0 1012.0
00 20.07 СВ 3 н/о н/о +8.2 +8.8 104 +5 +5 1013.0 1012.0
03 20.07 ЮВ 4 н/о н/о +8.4 +9.0 104 +5 +5 1010.3 1009.3
06 20.07 ЮВ 5 н/о н/о +8.6 +9.2 104 +5 +5 1009.0 1008.0
09 20.07 Ю 4 н/о н/о +12.0 +12.6 104 +10 +10 1009.0 1008.0
12 20.07 Ю 7 н/о н/о +24.3 +14.7 55 +27 +27 жарко 1008.9 1008.0
15 20.07 З 5 н/о н/о +19.4 +15.1 76 +21 +21 комфорт 1010.2 1009.3
18 20.07 З 4 н/о н/о +14.1 +13.5 96 +13 +13 1011.7 1010.7
21 20.07 ЮЗ 2 н/о н/о +10.9 +11.5 104 +9 +9 1011.7 1010.7
00 21.07 ЮЗ 3 н/о н/о +13.5 +13.3 99 +12 +12 1011.7 1010.7
03 21.07 ЮЗ 5 н/о н/о +16.6 +12.3 76 +16 +16 1011.7 1010.7
06 21.07 ЮЗ 7 н/о н/о +17.8 +12.5 71 +17 +17 1011.6 1010.7
09 21.07 ЮЗ 8 н/о н/о +18.3 +12.7 70 +18 +18 1011.6 1010.7
12 21.07 З 6 н/о н/о +14.5 +11.5 82 +13 +13 1011.7 1010.7
15 21.07 З 5 н/о н/о +11.3 +8.9 85 +9 +9 1013.0 1012.0
18 21.07 З 5 н/о н/о +9.4 +8.2 92 +6 +6 1013.0 1012.0
21 21.07 З 6 н/о н/о +7.4 +7.1 98 +3 +3 1013.0 1012.0
00 22.07 З 6 н/о н/о +7.3 +6.7 96 +3 +3 1014.3 1013.3
03 22.07 СЗ 6 н/о н/о +8.7 +7.2 90 +5 +5 1014.3 1013.3
06 22.07 СЗ 5 н/о н/о +10.3 +7.5 83 +7 +7 1015.7 1014.7
09 22.07 СВ 4 н/о н/о +5.4 +5.0 +1 +1 1017.1 1016.1
12 22.07 СВ 6 н/о н/о +4.7 +4.4 98 -1 -1 1021.0 1020.0
15 22.07 СВ 7 н/о н/о +4.5 +3.8 95 -1 -1 1022.3 1021.3
18 22.07 СВ 6 н/о н/о +3.7 +3.8 101 -2 -2 1023.7 1022.7
21 22.07 СВ 6 н/о н/о +3.6 +4.2 104 -2 -2 1023.7 1022.7
00 23.07 СВ 6 н/о н/о +4.5 +4.1 97 -1 -1 1023.7 1022.7
03 23.07 СВ 5 н/о н/о +5.2 +3.9 91 +1 +1 1023.7 1022.7
06 23.07 СВ 4 н/о н/о +5.6 +3.8 88 +2 +2 1023.7 1022.7
09 23.07 СВ 3 н/о н/о +5.1 +3.4 89 +2 1023.7 1022.7
12 23.07 СВ 3 н/о н/о +5.4 +3.9 90 +2 1023.7 1022.7
15 23.07 СВ 5 н/о н/о +5.1 +4.1 93 0 1022.3 1021.3
18 23.07 СВ 3 н/о н/о +3.8 +3.7 99 -0 1022.3 1021.3

 

Местоположение метеостанции Тамбей (Ямало-Ненецкий АО, Россия): широта 71.48 долгота 71.82 высота над уровнем моря 8 м.

В архиве по умолчанию представлена погода в Тамбее за последнюю неделю. Архивные данные за месяц целиком и за предыдущие месяцы, начиная с января 2011 года, Вы можете получить, выбрав интересующий диапазон дат из раскрывающегося списка и нажав кнопку "Ввод!".


*Определитесь, кто Вы:
робот инопланетянин человек

Внимание! Время в таблицах - всемирное. Для получения местного времени необходимо прибавить поправку, которая равна 5 ч.

Смотрите также архив погоды в соседних городах и на ближайших метеорологических станциях:

Погода в Сеяхе (Ямало-Ненецкий АО, Россия) (148 км)
Погода в Имени Попова (Ямало-Ненецкий АО, Россия) (214 км)
Погода в Гыде (Ямало-Ненецкий АО, Россия) (248 км)
Погода в Марресале (Ямало-Ненецкий АО, Россия) (270 км)
Погода в Антипаюте (Ямало-Ненецкий АО, Россия) (327 км)
Погода в Усть-Каре (Ненецкий АО, Россия) (357 км)
Погода на Острове Диксон (Красноярский край, Россия) (365 км)
Погода в Сопочной Карге (Красноярский край, Россия) (382 км)
Погода в Амдерме (Ненецкий АО, Россия) (419 км)
Погода в Новом Порте (Ямало-Ненецкий АО, Россия) (425 км)

Пояснения к столбцам:

Ветер - указаны скорость ветра в м/с - средняя за 10 мин, порывы в срок и между сроками (в фигурных скобках) и направление, откуда дует ветер: С - северный, СВ - северо-восточный, В - восточный, ЮВ - юго-восточный, Ю - южный, ЮЗ - юго-западный, З - западный, СЗ - северо-западный.
Видимость - горизонтальная дальность видимости в метрах или километрах. При видимости от 1 до 10 км при отсутствии осадков обычно наблюдается дымка, при ухудшении видимости до 1 км и менее - туман. В сухую погоду видимость может ухудшаться дымом, пылью или мглою.
Явления - указаны атмосферные явления, наблюдавшиеся в срок или в последний час перед сроком; фигурными скобками обозначены явления, наблюдавшиеся между сроками (за 1-3 часа до срока); квадратными скобками обозначены град или гололедные отложения с указанием их диаметра в мм.
Облачность - указаны через наклонную черту общая и нижняя облачность в баллах и высота нижней границы облаков в метрах; квадратными скобками обозначены формы облаков: Ci - перистые, Cs - перисто-слоистые, Cc - перисто-кучевые, Ac - высококучевые, As - высокослоистые, Sc - слоисто-кучевые, Ns - слоисто-дождевые, Cu - кучевые, Cb - кучево-дождевые. Подробнее классификацию облаков см. в Атласе облаков (PDF).
T - Температура воздуха - температура, измеренная на высоте 2 м над землей.
Td - Температура точки росы - температура, при понижении до которой содержащийся в воздухе водяной пар достигнет насыщения.
f - Относительная влажность воздуха - влажноcть воздуха, измеренная на высоте 2 м над землей.
Te - Эффективная температура - температура, которую ощущает одетый по сезону человек в тени. Характеристика душности погоды. При расчете учитывается влияние влажности воздуха и скорости ветра на теплоощущения человека.
Tes - Эффективная температура на солнце - температура, которую ощущает человек, с поправкой на солнечный нагрев. Характеристика знойности погоды. Зависит от высоты солнца над горизонтом, облачности и скорости ветра. Ночью, в пасмурную погоду, а также при ветре 12 м/с и более поправка равна нулю.
P - Атмосферное давление - приведенное к уровню моря атмосферное давление.
Po - Атмосферное давление - измеренное на уровне метеостанции атмосферное давление.
Tmin - Минимальная температура - минимум температуры воздуха на высоте 2 м над землей.
Tmax - Максимальная температура - максимум температуры воздуха на высоте 2 м над землей.
R - Количество осадков - Количество выпавших осадков за период времени, мм. При наведении курсора мыши на число - период времени, за который выпало указанное количество осадков.
R24 - Количество осадков - Количество выпавших осадков за 24 часа, мм.
S - Снежный покров - Высота снежного покрова, см. При наведении курсора мыши на число - состояние снежного покрова и степень покрытия местности в баллах.